Flag for U.S.A. Weather past 2 weeks in Arlington, Texas, U.S.A.

42 °F

Rain. Mostly cloudy.

Feels Like: 36 °F
Forecast: 41 / 44 °F
Wind: 10 mph from Northwest

Location: Arlington Municipal Airport

Current Time: Nov 29, 2015 at 8:46:43 AM

Latest Report: Nov 29, 2015 at 8:00 AM

Visibility: 4 mi

Pressure: 30.21 "Hg

Humidity: 79%

Dew point: 36 °F

Location of ArlingtonLocation

Historic Weather in Arlington — Graph


Arlington temperature yesterday

Maximum temperature yesterday: 43 °F (at 2:53 PM)
Minimum temperature yesterday: 39 °F (at 6:53 AM)
Average temperature yesterday: 41 °F

Past Weeks' High & Low Weather Summary

High77 °F (Nov 17, 1:53 AM)87% (Nov 16, 7:53 AM)30.37 "Hg (Nov 16, 7:53 AM)
Low31 °F (Nov 22, 5:53 AM)24% (Nov 18, 3:53 PM)29.48 "Hg (Nov 17, 2:53 AM)
Average57 °F63%30.07 "Hg
* Reported Nov 14 6:53 AM — Nov 29 6:53 AM, Arlington, Weather by CustomWeather, © 2015

Note: Actual official high and low records may vary slightly from our data, if they occured in-between our weather recording intervals... More about our weather records


Arlington weather history for previous 24 hours

Time TempWeatherWind HumidityBarometerVisibility
6:53 AM
Sun, Nov 29
42 °FRain. Mostly cloudy.7 mph82%30.21 "Hg4 mi
5:53 AM42 °FLight rain. Mostly cloudy.3 mph82%30.18 "Hg6 mi
4:53 AM42 °FHeavy rain. Mostly cloudy.9 mph79%30.17 "Hg4 mi
3:53 AM42 °FLow clouds.10 mph79%30.21 "Hg10 mi
2:53 AM42 °FLight rain. Mostly cloudy.9 mph79%30.23 "Hg10 mi
1:53 AM42 °FLow clouds.10 mph76%30.22 "Hg10 mi
11:53 PM
Sat, Nov 28
42 °FLow clouds.12 mph76%30.22 "Hg10 mi
10:53 PM42 °FLow clouds.13 mph76%30.26 "Hg10 mi
10:04 PM43 °FLow clouds.13 mph76%30.26 "Hg10 mi
9:53 PM43 °FOvercast.13 mph76%30.26 "Hg10 mi
8:53 PM43 °FOvercast.8 mph76%30.24 "Hg10 mi
7:53 PM43 °FOvercast.9 mph79%30.23 "Hg10 mi
6:53 PM43 °FOvercast.12 mph76%30.23 "Hg10 mi
5:53 PM43 °FLight rain. Mostly cloudy.12 mph76%30.22 "Hg10 mi
4:53 PM43 °FLight rain. Mostly cloudy.8 mph76%30.21 "Hg10 mi
3:53 PM42 °FLight rain. Mostly cloudy.10 mph79%30.22 "Hg9 mi
2:53 PM43 °FLight rain. Mostly cloudy.9 mph74%30.21 "Hg10 mi
1:53 PM42 °FOvercast.12 mph76%30.22 "Hg10 mi
12:53 PM41 °FLow clouds.16 mph76%30.23 "Hg10 mi
11:53 AM41 °FLow clouds.13 mph76%30.26 "Hg10 mi
10:53 AM41 °FLow clouds.10 mph80%30.27 "Hg10 mi
9:53 AM40 °FLight rain. Low clouds.12 mph80%30.27 "Hg10 mi
8:53 AM40 °FOvercast.15 mph80%30.25 "Hg10 mi
Weather by CustomWeather, © 2015

See weather overviewHow to use our weather pages